User: anonymous   Login
Location: Strawberry
(45.6646°N, 111.9596°W)
Time: 08:39:49
(UTC+00:00)
Language:

YUBILEINY - Orbit

View from above orbital plane
View from above orbital plane
View from above satellite
View from above satellite

Ground track
Ground track

The orbit data is extracted from the following two-line orbital elements,

1 32953U 08025A   22329.74596589  .00000024  00000-0  10000-3 0  9998
2 32953  82.5023  83.6268 0018662 267.3962  92.4982 12.43115599658378
Epoch (UTC): 25 November 2022 17:54:11
Eccentricity: 0.0018662
inclination: 82.5023°
perigee height: 1479 km
apogee height: 1508 km
right ascension of ascending node: 83.6268°
argument of perigee: 267.3962°
revolutions per day: 12.43115599
mean anomaly at epoch: 92.4982°
orbit number at epoch: 65837

The dashed part of the orbit path shows where the satellite is in the earth's shadow,  

DLR